Regional Weather Roundup
Issued by NWS

Home | Current Version | Previous Version | Graphics & Text | Print | Product List | Glossary On
Versions: 1 2 3 4 5 6 7 8 9 10 11 12 13 14 15 16 17 18 19 20 21 22 23 24 25 26 27 28 29 30 31 32 33 34 35 36 37 38 39 40 41 42 43 44 45 46 47 48 49 50
000
ASUS43 KBIS 291620
RWRND

NORTH DAKOTA REGIONAL WEATHER ROUNDUP
NATIONAL WEATHER SERVICE BISMARCK ND
1100 AM CDT FRI AUG 29 2014

NOTE: "FAIR" INDICATES FEW OR NO CLOUDS BELOW 12,000 FEET WITH NO
SIGNIFICANT WEATHER AND/OR OBSTRUCTIONS TO VISIBILITY.


NDZ001>003-009>011-017-291700-
NORTHWEST NORTH DAKOTA

CITY           SKY/WX    TMP DP  RH WIND       PRES   REMARKS
WILLISTON      CLOUDY    65  55  70 N15       29.97R
MINOT          CLOUDY    63  57  81 NW17G26   29.88R
MINOT AFB      CLOUDY    63  59  87 N18       29.88R
$$

NDZ018>021-031>035-040>046-291700-
SOUTHWEST NORTH DAKOTA

CITY           SKY/WX    TMP DP  RH WIND       PRES   REMARKS
BISMARCK       MOSUNNY   75  60  59 NW16G24   29.86R
DICKINSON      CLOUDY    64  57  78 NW20      29.94R
GARRISON         N/A     63  60  90 NW10      29.89R
HETTINGER ARPT CLOUDY    65  52  62 NW22G30   29.95R
$$

NDZ004>008-012>016-024-026-027-054-291700-
NORTHEAST NORTH DAKOTA

CITY           SKY/WX    TMP DP  RH WIND       PRES   REMARKS
GRAND FORKS    CLOUDY    67  64  90 S5        29.76R
GRND FRKS AFB  CLOUDY    66  66 100 SE2       29.77R
DEVILS LAKE    PTSUNNY   70  61  73 N10       29.76S
$$

NDZ022-023-025-028>030-036>039-047>053-291700-
SOUTHEAST NORTH DAKOTA

CITY           SKY/WX    TMP DP  RH WIND       PRES   REMARKS
FARGO          CLOUDY    69  64  84 CALM      29.76F
JAMESTOWN      CLOUDY    68  64  87 W8        29.78S
$$




USA.gov is the U.S. government's official web portal to all federal, state and local government web resources and services.